Regional Weather Roundup
Issued by NWS

Home | Current Version | Previous Version | Graphics & Text | Print | Product List | Glossary On
Versions: 1 2 3 4 5 6 7 8 9 10 11 12 13 14 15 16 17 18 19 20 21 22 23 24 25 26 27 28 29 30 31 32 33 34 35 36 37 38 39 40 41 42 43 44 45 46 47 48 49 50
000
ASUS45 KBOI 252210
RWRID

IDAHO REGIONAL WEATHER ROUNDUP
NATIONAL WEATHER SERVICE BOISE ID
400 PM MDT SAT MAR 25 2017

NOTE: "FAIR" INDICATES FEW OR NO CLOUDS BELOW 12000 FEET
WITH NO SIGNIFICANT WEATHER AND/OR OBSTRUCTIONS TO VISIBILITY

IDZ012-014-252300-
SOUTHWEST IDAHO


CITY           SKY/WX    TMP DP  RH WIND       PRES   REMARKS
BOISE          MOSUNNY   55  31  39 W10       30.01F
CALDWELL       MOSUNNY   57  34  41 VRB5      30.02F
MOUNTAIN HOME  MOSUNNY   55  31  40 N15       30.00F
$$

IDZ016-017-252300-
SOUTHCENTRAL IDAHO


CITY           SKY/WX    TMP DP  RH WIND       PRES   REMARKS
BURLEY         MOSUNNY   52  28  39 W14G25    29.97F
JEROME         MOSUNNY   53  29  39 W20G28    30.00F
TWIN FALLS     MOSUNNY   50  27  40 W16G24    30.01F
$$

IDZ019>023-252300-
SOUTHEAST IDAHO


CITY           SKY/WX    TMP DP  RH WIND       PRES   REMARKS
IDAHO FALLS    PTSUNNY   48  35  60 S10       29.95F
POCATELLO      PTSUNNY   50  34  54 W10       29.97F
REXBURG        CLOUDY    46  34  62 SW8       29.95F
$$

IDZ006-010-011-018-031-032-252300-
CENTRAL IDAHO MOUNTAINS


CITY           SKY/WX    TMP DP  RH WIND       PRES   REMARKS
MCCALL         CLOUDY    40  28  62 S13       29.98S WCI  32
HAILEY         MOSUNNY   46  28  49 SW6       29.97F
STANLEY          N/A     40  19  43 NW7       29.98F
SALMON         MOSUNNY   52  27  37 NW7       29.90F
CHALLIS        MOSUNNY   52  15  23 W13G18    29.91F
$$

IDZ002-004-006-007-026-252300-
NORTHERN IDAHO


CITY           SKY/WX    TMP DP  RH WIND       PRES   REMARKS
LEWISTON       LGT RAIN  46  40  79 N8        30.06R
LOWELL           N/A     50  38  63 S9G16     30.01S
COEUR D`ALENE  CLOUDY    48  32  53 SW17      29.99F
MULLAN PASS    CLOUDY    30  30 100 NW6       29.93S FOG     WCI  24
$$



USA.gov is the U.S. government's official web portal to all federal, state and local government web resources and services.